ACA829 EVRA-CYVR

Flight info

Callsign ACA829
Flight time N/A
Altitude 30000
Route SOKVA DCT BODRI DCT GIKAV DCT GISOX/N0496F320 DCT 71N000E/M084F320 74N010W 76N020W 77N030W 78N040W 78N050W DCT QQ/N0488F340 DCT EMETO DCT MITOV DCT 67N100W 62N110W DCT BISPO DCT YWL Q800 ELIDI WHSLR8
Aircraft B77W/H-SDE1E2E3FGHIJ2J3J4J5M1RWXY/LB1D1

Departure

Time N/A
Airport Riga International Airport (EVRA)

Arrival

Time 2026-05-03 21:10
Airport Vancouver International Airport (CYVR)
Time Latitude Longitude Altitude Speed Heading
2026-05-03 20:15 53.58556 -120.55518 36100 ft 514 kts 220°
2026-05-03 20:15 53.52805 -120.62659 36109 ft 513 kts 220°
2026-05-03 20:16 53.47064 -120.69775 36106 ft 514 kts 220°
2026-05-03 20:16 53.41292 -120.76899 36102 ft 514 kts 220°
2026-05-03 20:17 53.35520 -120.83998 36106 ft 515 kts 220°
2026-05-03 20:17 53.29747 -120.91077 36105 ft 515 kts 220°
2026-05-03 20:18 53.23954 -120.98146 36113 ft 516 kts 219°
2026-05-03 20:18 53.18151 -121.05206 36121 ft 517 kts 219°
2026-05-03 20:19 53.12343 -121.12258 36129 ft 517 kts 219°
2026-05-03 20:19 53.06512 -121.19308 36122 ft 518 kts 219°
2026-05-03 20:20 53.00680 -121.26332 36117 ft 518 kts 219°
2026-05-03 20:20 52.94871 -121.33308 36123 ft 518 kts 219°
2026-05-03 20:21 52.89022 -121.40308 36118 ft 518 kts 219°
2026-05-03 20:21 52.83626 -121.48071 36120 ft 511 kts 233°
2026-05-03 20:22 52.79692 -121.57720 36112 ft 505 kts 244°
2026-05-03 20:22 52.76316 -121.67892 36105 ft 505 kts 246°
2026-05-03 20:23 52.73018 -121.78130 36102 ft 506 kts 246°
2026-05-03 20:23 52.69731 -121.88408 36107 ft 506 kts 246°
2026-05-03 20:24 52.66459 -121.98676 36108 ft 506 kts 246°
2026-05-03 20:24 52.63190 -122.08950 36111 ft 507 kts 246°
2026-05-03 20:25 52.59912 -122.19240 36110 ft 508 kts 246°
2026-05-03 20:25 52.56636 -122.29533 36110 ft 508 kts 246°
2026-05-03 20:26 52.53359 -122.39822 36111 ft 508 kts 246°
2026-05-03 20:26 52.50083 -122.50113 36109 ft 508 kts 246°
2026-05-03 20:27 52.46806 -122.60403 36115 ft 508 kts 246°
2026-05-03 20:27 52.43530 -122.70673 36115 ft 509 kts 246°
2026-05-03 20:28 52.40248 -122.80951 36112 ft 509 kts 246°
2026-05-03 20:28 52.36990 -122.91159 36107 ft 509 kts 246°
2026-05-03 20:29 52.33722 -123.01399 36109 ft 508 kts 246°
2026-05-03 20:29 52.30148 -123.11371 36106 ft 513 kts 236°
2026-05-03 20:30 52.25006 -123.19524 36111 ft 522 kts 218°
2026-05-03 20:30 52.18540 -123.25002 36112 ft 528 kts 200°
2026-05-03 20:31 52.11322 -123.27285 36103 ft 532 kts 183°
2026-05-03 20:31 52.03954 -123.26165 36091 ft 534 kts 166°
2026-05-03 20:32 51.97066 -123.21725 36090 ft 533 kts 148°
2026-05-03 20:32 51.91280 -123.14401 36104 ft 526 kts 131°
2026-05-03 20:33 51.86456 -123.05530 36110 ft 524 kts 127°
2026-05-03 20:33 51.81841 -122.96408 36108 ft 524 kts 126°
2026-05-03 20:34 51.77259 -122.87271 36109 ft 523 kts 126°
2026-05-03 20:34 51.72683 -122.78113 36113 ft 523 kts 126°
2026-05-03 20:35 51.68125 -122.68975 36096 ft 523 kts 126°
2026-05-03 20:35 51.63574 -122.59846 36100 ft 522 kts 126°
2026-05-03 20:36 51.59042 -122.50735 36100 ft 521 kts 126°
2026-05-03 20:36 51.54517 -122.41723 36085 ft 520 kts 130°
2026-05-03 20:36 51.51724 -122.38034 36087 ft 524 kts 149°
2026-05-03 20:37 51.48334 -122.35895 36091 ft 527 kts 168°
2026-05-03 20:37 51.44692 -122.35451 36099 ft 527 kts 185°
2026-05-03 20:37 51.41090 -122.36424 36099 ft 527 kts 197°
2026-05-03 20:38 51.34540 -122.41405 36070 ft 521 kts 222°
2026-05-03 20:38 51.29252 -122.49292 36080 ft 521 kts 227°
2026-05-03 20:39 51.24023 -122.57347 36081 ft 523 kts 225°
2026-05-03 20:39 51.18698 -122.65216 36063 ft 519 kts 224°
2026-05-03 20:40 51.13362 -122.72934 36068 ft 517 kts 224°
2026-05-03 20:40 51.08035 -122.80609 36025 ft 518 kts 224°
2026-05-03 20:40 51.05351 -122.84481 35791 ft 522 kts 224°
2026-05-03 20:41 51.02670 -122.88340 35645 ft 518 kts 224°
2026-05-03 20:41 50.99998 -122.92181 35470 ft 518 kts 224°
2026-05-03 20:41 50.97328 -122.96015 35211 ft 518 kts 224°
2026-05-03 20:41 50.94650 -122.99855 34965 ft 516 kts 223°
2026-05-03 20:42 50.91873 -123.03423 34699 ft 514 kts 217°
2026-05-03 20:42 50.88874 -123.06505 34437 ft 512 kts 211°
2026-05-03 20:42 50.85739 -123.09181 34198 ft 511 kts 207°
2026-05-03 20:42 50.82486 -123.11372 33919 ft 509 kts 202°
2026-05-03 20:43 50.79181 -123.13399 33689 ft 506 kts 202°
2026-05-03 20:43 50.75895 -123.15397 33427 ft 505 kts 202°
2026-05-03 20:43 50.72628 -123.17389 33096 ft 503 kts 202°
2026-05-03 20:43 50.69385 -123.19378 32597 ft 498 kts 202°
2026-05-03 20:44 50.66181 -123.21354 32137 ft 492 kts 202°
2026-05-03 20:44 50.63015 -123.23317 31659 ft 486 kts 202°
2026-05-03 20:44 50.59880 -123.25265 31193 ft 482 kts 202°
2026-05-03 20:44 50.56778 -123.27191 30729 ft 476 kts 202°
2026-05-03 20:45 50.53704 -123.29095 30268 ft 472 kts 202°
2026-05-03 20:45 50.50668 -123.30976 29793 ft 467 kts 202°
2026-05-03 20:45 50.47661 -123.32835 29336 ft 463 kts 202°
2026-05-03 20:45 50.44683 -123.34673 28846 ft 458 kts 201°
2026-05-03 20:46 50.41765 -123.36469 28396 ft 454 kts 201°
2026-05-03 20:46 50.38799 -123.38292 27923 ft 450 kts 201°
2026-05-03 20:46 50.35893 -123.40075 27451 ft 446 kts 201°
2026-05-03 20:46 50.33010 -123.41843 26989 ft 443 kts 201°
2026-05-03 20:47 50.30196 -123.43566 26541 ft 439 kts 201°
2026-05-03 20:47 50.27358 -123.45300 26092 ft 435 kts 201°
2026-05-03 20:47 50.24555 -123.47012 25634 ft 431 kts 201°
2026-05-03 20:47 50.21784 -123.48703 25202 ft 427 kts 201°
2026-05-03 20:48 50.19016 -123.50390 24751 ft 424 kts 201°
2026-05-03 20:48 50.16277 -123.52057 24305 ft 421 kts 201°
2026-05-03 20:48 50.13562 -123.53709 23873 ft 418 kts 201°
2026-05-03 20:48 50.10865 -123.55344 23423 ft 415 kts 201°
2026-05-03 20:49 50.08177 -123.56974 22988 ft 412 kts 201°
2026-05-03 20:49 50.05514 -123.58587 22538 ft 410 kts 201°
2026-05-03 20:49 50.02868 -123.60187 22105 ft 407 kts 201°
2026-05-03 20:49 50.00245 -123.61772 21679 ft 404 kts 201°
2026-05-03 20:50 49.97634 -123.63372 21241 ft 402 kts 201°
2026-05-03 20:50 49.95045 -123.64970 20796 ft 400 kts 201°
2026-05-03 20:50 49.92469 -123.66563 20363 ft 398 kts 201°
2026-05-03 20:50 49.89907 -123.68141 19918 ft 396 kts 201°
2026-05-03 20:51 49.87356 -123.69709 19492 ft 393 kts 201°
2026-05-03 20:51 49.84817 -123.71264 19053 ft 391 kts 201°
2026-05-03 20:51 49.82266 -123.72587 18594 ft 384 kts 189°
2026-05-03 20:51 49.79623 -123.72636 18182 ft 380 kts 169°
2026-05-03 20:52 49.77079 -123.71687 17786 ft 374 kts 165°
2026-05-03 20:52 49.74560 -123.70703 17362 ft 373 kts 166°
2026-05-03 20:52 49.72043 -123.69768 17057 ft 368 kts 166°
2026-05-03 20:52 49.70413 -123.69178 17024 ft 359 kts 166°
2026-05-03 20:53 49.68015 -123.68316 17015 ft 352 kts 166°
2026-05-03 20:53 49.65634 -123.67467 17014 ft 349 kts 167°
2026-05-03 20:53 49.63304 -123.66635 17017 ft 339 kts 166°
2026-05-03 20:53 49.61035 -123.65826 16998 ft 331 kts 166°
2026-05-03 20:54 49.58803 -123.65033 16899 ft 329 kts 167°
2026-05-03 20:54 49.54371 -123.63460 16237 ft 325 kts 167°
2026-05-03 20:54 49.52167 -123.62679 15873 ft 323 kts 167°
2026-05-03 20:55 49.49984 -123.61903 15522 ft 321 kts 167°
2026-05-03 20:55 49.47810 -123.61132 15169 ft 319 kts 166°
2026-05-03 20:55 49.45651 -123.60366 14798 ft 318 kts 166°
2026-05-03 20:55 49.43491 -123.59601 14434 ft 317 kts 167°
2026-05-03 20:56 49.41351 -123.58842 14099 ft 315 kts 166°
2026-05-03 20:56 49.39220 -123.58085 13754 ft 313 kts 167°
2026-05-03 20:56 49.37135 -123.57212 13332 ft 309 kts 155°
2026-05-03 20:56 49.35425 -123.55268 12835 ft 306 kts 127°
2026-05-03 20:57 49.34411 -123.52477 12264 ft 299 kts 106°
2026-05-03 20:57 49.33988 -123.49362 11608 ft 298 kts 97°
2026-05-03 20:57 49.33686 -123.46237 11230 ft 298 kts 97°
2026-05-03 20:57 49.33378 -123.43040 11083 ft 306 kts 98°
2026-05-03 20:58 49.33056 -123.39841 10987 ft 300 kts 98°
2026-05-03 20:58 49.32736 -123.36753 10961 ft 287 kts 98°
2026-05-03 20:58 49.32425 -123.33780 10827 ft 278 kts 98°
2026-05-03 20:58 49.32121 -123.30883 10606 ft 273 kts 98°
2026-05-03 20:59 49.31820 -123.28028 10284 ft 271 kts 98°
2026-05-03 20:59 49.31518 -123.25182 9938 ft 270 kts 98°
2026-05-03 20:59 49.31220 -123.22373 9688 ft 261 kts 99°
2026-05-03 20:59 49.30929 -123.19647 9277 ft 257 kts 99°
2026-05-03 21:00 49.30643 -123.16966 8775 ft 254 kts 99°
2026-05-03 21:00 49.30454 -123.15201 8431 ft 253 kts 99°
2026-05-03 21:00 49.30079 -123.11687 7729 ft 251 kts 99°
2026-05-03 21:00 49.29794 -123.09035 7148 ft 253 kts 99°
2026-05-03 21:01 49.29510 -123.06400 6769 ft 250 kts 99°
2026-05-03 21:01 49.29227 -123.03773 6446 ft 249 kts 99°
2026-05-03 21:01 49.28947 -123.01190 6235 ft 244 kts 99°
2026-05-03 21:01 49.28656 -122.98645 5934 ft 238 kts 102°
2026-05-03 21:02 49.28255 -122.96232 5762 ft 231 kts 105°
2026-05-03 21:02 49.27830 -122.93905 5585 ft 225 kts 105°
2026-05-03 21:02 49.27404 -122.91576 5432 ft 229 kts 105°
2026-05-03 21:02 49.26977 -122.89215 5267 ft 233 kts 105°
2026-05-03 21:03 49.26544 -122.86793 5087 ft 233 kts 105°
2026-05-03 21:03 49.26122 -122.84428 5033 ft 229 kts 105°
2026-05-03 21:03 49.25679 -122.82102 4985 ft 227 kts 114°
2026-05-03 21:03 49.24722 -122.80205 4816 ft 228 kts 147°
2026-05-03 21:04 49.23250 -122.79391 4503 ft 227 kts 176°
2026-05-03 21:04 49.21674 -122.79444 4155 ft 226 kts 188°
2026-05-03 21:04 49.20212 -122.80281 3730 ft 227 kts 220°
2026-05-03 21:04 49.19257 -122.82157 3381 ft 225 kts 243°
2026-05-03 21:05 49.18579 -122.84313 3085 ft 223 kts 245°
2026-05-03 21:05 49.17937 -122.86407 3013 ft 214 kts 245°
2026-05-03 21:05 49.17333 -122.88472 2995 ft 210 kts 254°
2026-05-03 21:05 49.17247 -122.90662 3047 ft 211 kts 276°
2026-05-03 21:06 49.17429 -122.92917 2983 ft 213 kts 278°
2026-05-03 21:06 49.17667 -122.95136 2690 ft 209 kts 280°
2026-05-03 21:06 49.17912 -122.97266 2416 ft 197 kts 280°
2026-05-03 21:06 49.18139 -122.99257 2155 ft 182 kts 281°
2026-05-03 21:07 49.18351 -123.01085 1949 ft 173 kts 281°
2026-05-03 21:07 49.18554 -123.02874 1723 ft 166 kts 280°
2026-05-03 21:07 49.18740 -123.04555 1506 ft 155 kts 280°
2026-05-03 21:07 49.18923 -123.06135 1328 ft 147 kts 281°
2026-05-03 21:08 49.19101 -123.07699 1201 ft 153 kts 281°
2026-05-03 21:08 49.19287 -123.09304 953 ft 152 kts 281°
2026-05-03 21:08 49.19465 -123.10876 722 ft 149 kts 280°
2026-05-03 21:08 49.19640 -123.12426 511 ft 148 kts 281°
2026-05-03 21:09 49.19820 -123.13979 321 ft 148 kts 281°
2026-05-03 21:09 49.19998 -123.15537 124 ft 149 kts 281°
2026-05-03 21:09 49.20176 -123.17083 30 ft 140 kts 279°
2026-05-03 21:09 49.20320 -123.18342 30 ft 98 kts 280°
2026-05-03 21:10 49.20410 -123.19134 29 ft 55 kts 280°
2026-05-03 21:10 49.20469 -123.19645 30 ft 41 kts 280°
2026-05-03 21:10 49.20496 -123.19905 30 ft 13 kts 270°
2026-05-03 21:10 49.20442 -123.19981 30 ft 12 kts 189°
2026-05-03 21:11 49.20367 -123.19999 30 ft 9 kts 189°
2026-05-03 21:11 49.20339 -123.20006 30 ft 0 kts 190°
2026-05-03 21:11 49.20338 -123.20006 30 ft 0 kts 190°
2026-05-03 21:12 49.20334 -123.20007 30 ft 1 kts 190°
2026-05-03 21:12 49.20328 -123.20009 30 ft 1 kts 188°
2026-05-03 21:12 49.20309 -123.20002 30 ft 5 kts 154°
2026-05-03 21:12 49.20287 -123.19926 30 ft 11 kts 104°
2026-05-03 21:13 49.20268 -123.19770 30 ft 18 kts 98°
2026-05-03 21:13 49.20241 -123.19543 30 ft 24 kts 100°
2026-05-03 21:13 49.20212 -123.19297 29 ft 22 kts 100°
2026-05-03 21:13 49.20188 -123.19086 29 ft 18 kts 99°
2026-05-03 21:14 49.20169 -123.18906 29 ft 16 kts 99°
2026-05-03 21:14 49.20150 -123.18734 29 ft 16 kts 100°
2026-05-03 21:14 49.20131 -123.18579 29 ft 12 kts 101°
2026-05-03 21:14 49.20109 -123.18513 29 ft 3 kts 148°
2026-05-03 21:15 49.20084 -123.18508 29 ft 4 kts 178°
2026-05-03 21:15 49.20049 -123.18514 29 ft 8 kts 188°
2026-05-03 21:15 49.19976 -123.18533 29 ft 13 kts 191°
2026-05-03 21:15 49.19863 -123.18564 30 ft 19 kts 189°
2026-05-03 21:16 49.19776 -123.18503 30 ft 17 kts 105°
2026-05-03 21:16 49.19754 -123.18323 30 ft 15 kts 99°
2026-05-03 21:16 49.19738 -123.18211 30 ft 8 kts 110°
2026-05-03 21:16 49.19741 -123.18130 30 ft 6 kts 52°
2026-05-03 21:17 49.19759 -123.18102 30 ft 4 kts 42°
2026-05-03 21:17 49.19770 -123.18088 30 ft 2 kts 41°
2026-05-03 21:17 49.19774 -123.18083 30 ft 0 kts 41°